Sheldon, IA

6:17 PM CST on February 24, 2017 (GMT -0600)
Sheldon Municipal

Weather History for KSHL - January, 2012

Change the Weather History Date:

Wednesday, January 25, 2012

  Actual Average Record
Temperature  
Mean Temperature 27 °F -  
Max Temperature 30 °F 23 °F 57 °F (2002)
Min Temperature 24 °F 5 °F -18 °F (1961)
Degree Days  
Heating Degree Days 38    
Moisture  
Dew Point 27 °F    
Average Humidity 94    
Maximum Humidity 100    
Minimum Humidity 86    
Precipitation  
Precipitation 0.03 in - - ()
Sea Level Pressure  
Sea Level Pressure 30.06 in    
Wind  
Wind Speed 6 mph (South)    
Max Wind Speed 14 mph    
Max Gust Speed 17 mph    
Visibility 3 miles    
Events Fog , Snow    
Averages and records for this station are not official NWS values.
T = Trace of Precipitation, MM = Missing Value Source: NWS Daily Summary

Daily Weather History Graph

Daily Weather History Graph

Search for Another Location

Airport or City:

Trip Planner

Search our weather history database for the weather conditions in past years. The results will help you decide how hot, cold, wet, or windy it might be!

Date:

Astronomy

Jan. 25, 2012 Rise Set
Actual Time 7:46 AM CST 5:25 PM CST
Civil Twilight 7:15 AM CST 5:56 PM CST
Nautical Twilight 6:40 AM CST 6:31 PM CST
Astronomical Twilight 6:06 AM CST 7:04 PM CST
Moon 8:40 AM CST 8:26 PM CST
Length of Visible Light 10h 41m
Length of Day
9h 39m
Waxing Crescent, 7% of the Moon is Illuminated
Jan 25
Waxing Crescent
Jan 30
First Quarter
Feb 7
Full
Feb 14
Last Quarter
Feb 21
New

Hourly Weather History & Observations

Time (CST) Temp. Windchill Dew Point Humidity Pressure Visibility Wind Dir Wind Speed Gust Speed Precip Events Conditions
12:15 AM 28.4 °F 24.6 °F 26.6 °F 93% 30.22 in 5.0 mi SSE 3.5 mph - N/A Snow Light Snow
12:35 AM 28.4 °F 22.2 °F 26.6 °F 93% 30.22 in 7.0 mi South 5.8 mph - N/A Snow Light Snow
12:55 AM 28.4 °F 22.2 °F 24.8 °F 86% 30.22 in 7.0 mi South 5.8 mph - N/A   Overcast
1:15 AM 28.4 °F 23.3 °F 24.8 °F 86% 30.22 in 7.0 mi SSE 4.6 mph - N/A   Overcast
1:35 AM 26.6 °F 17.5 °F 24.8 °F 93% 30.21 in 7.0 mi SSE 9.2 mph - N/A   Overcast
1:55 AM 26.6 °F 19.1 °F 24.8 °F 93% 30.20 in 7.0 mi SSE 6.9 mph - N/A   Overcast
2:35 AM 26.6 °F - 24.8 °F 93% 30.21 in 5.0 mi Calm Calm - N/A   Overcast
2:55 AM 26.6 °F - 24.8 °F 93% 30.19 in 5.0 mi Calm Calm - N/A   Overcast
3:15 AM 26.6 °F - 24.8 °F 93% 30.19 in 5.0 mi Calm Calm - N/A   Overcast
3:35 AM 26.6 °F 22.6 °F 24.8 °F 93% 30.18 in 4.0 mi SE 3.5 mph - N/A   Overcast
3:55 AM 26.6 °F 22.6 °F 24.8 °F 93% 30.17 in 4.0 mi SE 3.5 mph - N/A   Overcast
4:15 AM 26.6 °F 21.2 °F 24.8 °F 93% 30.17 in 4.0 mi SE 4.6 mph - N/A   Overcast
4:35 AM 26.6 °F - 24.8 °F 93% 30.17 in 4.0 mi Calm Calm - N/A   Overcast
4:55 AM 26.6 °F 20.0 °F 24.8 °F 93% 30.16 in 4.0 mi SE 5.8 mph - N/A   Overcast
5:15 AM 26.6 °F 22.6 °F 24.8 °F 93% 30.16 in 4.0 mi SSE 3.5 mph - N/A   Overcast
5:35 AM 24.8 °F 20.5 °F 23.0 °F 93% 30.15 in 4.0 mi SE 3.5 mph - N/A   Overcast
5:55 AM 24.8 °F 19.1 °F 23.0 °F 93% 30.14 in 3.0 mi SE 4.6 mph - N/A   Overcast
6:15 AM 24.8 °F 20.5 °F 23.0 °F 93% 30.14 in 3.0 mi SE 3.5 mph - N/A   Overcast
6:35 AM 24.8 °F 20.5 °F 23.0 °F 93% 30.14 in 3.0 mi SE 3.5 mph - N/A   Overcast
6:55 AM 24.8 °F 20.5 °F 23.0 °F 93% 30.14 in 3.0 mi SSE 3.5 mph - N/A   Overcast
7:15 AM 24.8 °F 20.5 °F 23.0 °F 93% 30.15 in 2.5 mi SSE 3.5 mph - N/A   Overcast
7:35 AM 26.6 °F - 23.0 °F 86% 30.14 in 3.0 mi Calm Calm - N/A   Overcast
7:55 AM 24.8 °F 17.9 °F 23.0 °F 93% 30.11 in 2.5 mi SSE 5.8 mph - N/A   Overcast
8:15 AM 24.8 °F 19.1 °F 23.0 °F 93% 30.11 in 3.0 mi SSE 4.6 mph - N/A   Overcast
8:35 AM 26.6 °F - 24.8 °F 93% 30.11 in 2.5 mi Calm Calm - N/A   Overcast
8:55 AM 26.6 °F 22.6 °F 24.8 °F 93% 30.10 in 3.0 mi South 3.5 mph - N/A   Overcast
9:15 AM 26.6 °F - 24.8 °F 93% 30.09 in 3.0 mi Calm Calm - N/A   Overcast
9:35 AM 26.6 °F 22.6 °F 24.8 °F 93% 30.08 in 3.0 mi South 3.5 mph - N/A   Overcast
9:55 AM 26.6 °F 21.2 °F 24.8 °F 93% 30.07 in 3.0 mi SSE 4.6 mph - N/A   Overcast
10:15 AM 28.4 °F 22.2 °F 24.8 °F 86% 30.06 in 2.5 mi South 5.8 mph - N/A   Overcast
10:35 AM 28.4 °F 20.4 °F 26.6 °F 93% 30.07 in 2.5 mi South 8.1 mph - N/A   Overcast
10:55 AM 28.4 °F 19.1 °F 26.6 °F 93% 30.08 in 2.5 mi SSW 10.4 mph - N/A   Overcast
11:15 AM 30.2 °F 21.9 °F 26.6 °F 86% 30.08 in 2.0 mi SSW 9.2 mph - N/A   Overcast
11:35 AM 30.2 °F 21.3 °F 28.4 °F 93% 30.07 in 2.0 mi SSW 10.4 mph - N/A   Overcast
11:55 AM 30.2 °F 21.3 °F 28.4 °F 93% 30.06 in 2.0 mi SSW 10.4 mph - N/A   Overcast
12:15 PM 30.2 °F 22.6 °F 28.4 °F 93% 30.05 in 1.8 mi SSW 8.1 mph - 0.01 in   Overcast
12:35 PM 30.2 °F 21.3 °F 28.4 °F 93% 30.04 in 1.8 mi SW 10.4 mph - 0.03 in   Overcast
12:55 PM 30.2 °F 22.6 °F 28.4 °F 93% 30.02 in 2.0 mi SW 8.1 mph - 0.03 in   Overcast
1:15 PM 30.2 °F 21.3 °F 28.4 °F 93% 30.02 in 2.0 mi WSW 10.4 mph - N/A   Overcast
1:35 PM 30.2 °F 20.2 °F 28.4 °F 93% 30.01 in 1.8 mi WSW 12.7 mph - N/A   Overcast
1:55 PM 30.2 °F 20.8 °F 28.4 °F 93% 30.00 in 1.8 mi WSW 11.5 mph - N/A   Overcast
2:15 PM 30.2 °F 22.6 °F 28.4 °F 93% 30.00 in 1.2 mi SW 8.1 mph - N/A   Overcast
2:35 PM 30.2 °F 21.3 °F 28.4 °F 93% 29.99 in 0.8 mi SW 10.4 mph - N/A   Overcast
3:35 PM 30.2 °F 21.3 °F 28.4 °F 93% 29.95 in 1.0 mi SSW 10.4 mph - N/A   Overcast
3:55 PM 30.2 °F 21.3 °F 28.4 °F 93% 29.94 in 0.8 mi SSW 10.4 mph - N/A   Overcast
4:15 PM 30.2 °F 19.8 °F 28.4 °F 93% 29.92 in 1.0 mi South 13.8 mph - N/A   Overcast
4:35 PM 30.2 °F 20.8 °F 30.2 °F 100% 29.92 in 1.2 mi South 11.5 mph - N/A   Overcast
4:55 PM 30.2 °F 20.2 °F 30.2 °F 100% 29.92 in 1.0 mi South 12.7 mph 16.1 mph N/A   Overcast
5:15 PM 30.2 °F 20.2 °F 30.2 °F 100% 29.92 in 0.5 mi South 12.7 mph - N/A Fog Light Freezing Fog
5:35 PM 30.2 °F 20.2 °F 30.2 °F 100% 29.91 in 0.8 mi South 12.7 mph - N/A   Overcast
5:55 PM 30.2 °F 20.2 °F 30.2 °F 100% 29.92 in 1.5 mi South 12.7 mph 16.1 mph N/A   Overcast
6:15 PM 30.2 °F 22.6 °F 30.2 °F 100% 29.91 in 1.5 mi South 8.1 mph - N/A   Overcast
6:35 PM 30.2 °F 20.2 °F 30.2 °F 100% 29.91 in 1.5 mi South 12.7 mph - N/A   Overcast
6:55 PM 30.2 °F 21.3 °F 30.2 °F 100% 29.91 in 1.8 mi SSW 10.4 mph 17.3 mph N/A   Overcast
7:15 PM 30.2 °F 20.8 °F 30.2 °F 100% 29.91 in 1.5 mi South 11.5 mph - N/A   Overcast
7:35 PM 30.2 °F 20.8 °F 30.2 °F 100% 29.90 in 1.2 mi South 11.5 mph - N/A   Overcast
7:55 PM 30.2 °F 21.3 °F 30.2 °F 100% 29.88 in 1.2 mi South 10.4 mph - N/A   Overcast
8:15 PM 30.2 °F 19.8 °F 30.2 °F 100% 29.86 in 0.8 mi South 13.8 mph - N/A   Overcast
8:35 PM 30.2 °F 21.3 °F 28.4 °F 93% 29.86 in 0.5 mi SSW 10.4 mph - N/A Fog Light Freezing Fog
8:55 PM 30.2 °F 21.9 °F 28.4 °F 93% 29.86 in 0.2 mi South 9.2 mph - N/A Fog Light Freezing Fog
9:15 PM 30.2 °F 21.3 °F 28.4 °F 93% 29.86 in 0.2 mi South 10.4 mph - N/A Fog Light Freezing Fog
9:35 PM 30.2 °F 20.2 °F 28.4 °F 93% 29.86 in 0.2 mi South 12.7 mph - N/A Fog Light Freezing Fog
9:55 PM 30.2 °F 20.8 °F 28.4 °F 93% 29.86 in 0.5 mi South 11.5 mph - N/A Fog Light Freezing Fog
10:35 PM 30.2 °F 21.3 °F 30.2 °F 100% 29.85 in 3.0 mi SSW 10.4 mph - N/A   Scattered Clouds
10:55 PM 30.2 °F 20.2 °F 30.2 °F 100% 29.85 in 4.0 mi South 12.7 mph - N/A   Clear
11:15 PM 30.2 °F 22.6 °F 28.4 °F 93% 29.86 in 4.0 mi SSW 8.1 mph - N/A   Clear
11:35 PM 30.2 °F 20.8 °F 28.4 °F 93% 29.85 in 4.0 mi South 11.5 mph - N/A   Clear
11:55 PM 30.2 °F 21.3 °F 28.4 °F 93% 29.84 in 5.0 mi South 10.4 mph - N/A   Clear